This demonstration page uses our WeatherBlox Daily Observations layout. Learn more.

41.55636, -103.73856

Hourly Observations for March 12, 2019

Temp ( °F °C ) Dew Point ( °F °C ) Humidity (%) Winds ( mph kmh ) Pressure ( in mb ) Visibility ( mi km ) Precip ( " mm )
12:53 am 00:53 Clear with Mist and Fog 28 -2.2 28 -2.2 100 100 ESE 7 11 30.03 1017 6 9.656064 0 0
1:30 am 01:30 Mostly Clear with Mist and Fog 27 -3 27 -3 100 100 ENE 3 6 30.12 1020 4 6.437376 0 0
1:53 am 01:53 Mostly Clear with Mist and Fog 28 -2.2 28 -2.2 100 100 NNE 6 9 30 1016 5 8.04672 0 0
2:25 am 02:25 Partly Cloudy with Mist and Fog 28 -2.2 28 -2.2 100 100 SE 8 13 30.06 1018 1.5 2.414016 0 0
2:27 am 02:27 Mostly Cloudy with Mist and Fog 28 -2.2 28 -2.2 100 100 SE 7 11 30.06 1018 0.75 1.207008 0 0
2:36 am 02:36 Mostly Cloudy with Freezing Fog 28 -2 28 -2 100 100 E 3 6 30.06 1018 0.25 0.402336 0 0
2:53 am 02:53 Mostly Cloudy with Freezing Fog 28 -2.2 28 -2.2 100 100 SE 3 6 29.97 1015 0 0 0 0
3:36 am 03:36 Mostly Cloudy with Freezing Fog 27 -3 27 -3 100 100 Calm 30.09 1019 0.25 0.402336 0 0
3:53 am 03:53 Mostly Cloudy with Freezing Fog 27 -2.8 27 -2.8 100 100 ENE 3 6 29.97 1015 0.25 0.402336 0 0
4:31 am 04:31 Mostly Cloudy with Freezing Fog 28 -2.2 28 -2.2 100 100 Calm 30.06 1018 0.25 0.402336 0 0
4:43 am 04:43 Mostly Cloudy with Freezing Fog 28 -2.2 28 -2.2 100 100 E 3 6 30.06 1018 0.25 0.402336 0 0
4:50 am 04:50 Mostly Cloudy with Freezing Fog 28 -2 28 -2 100 100 NE 3 6 30.06 1018 0.25 0.402336 0 0
4:53 am 04:53 Mostly Cloudy with Freezing Fog 28 -2.2 28 -2.2 100 100 ENE 5 7 29.94 1014 0.25 0.402336 0 0
5:43 am 05:43 Mostly Cloudy with Freezing Fog 28 -2.2 28 -2.2 100 100 SSE 6 9 30.03 1017 0.25 0.402336 0 0
5:53 am 05:53 Mostly Cloudy with Freezing Fog 28 -2.2 28 -2.2 100 100 S 5 7 29.91 1013 0.25 0.402336 0 0
6:53 am 06:53 Mostly Cloudy with Freezing Fog 27 -2.8 27 -2.8 100 100 S 3 6 29.91 1013 0.25 0.402336 0 0
7:43 am 07:43 Mostly Cloudy with Freezing Fog 26 -3.3 26 -3.3 100 100 SSE 3 6 30.06 1018 0 0 0 0
7:53 am 07:53 Mostly Cloudy with Freezing Fog 27 -2.8 26 -3.3 96 96 ESE 3 6 29.91 1013 0 0 0 0
8:11 am 08:11 Mostly Cloudy with Freezing Fog 28 -2.2 27 -2.8 96 96 SE 3 6 30 1016 0 0 0 0
8:53 am 08:53 Mostly Cloudy with Freezing Fog 30 -1.1 30 -1.1 100 100 E 3 6 29.88 1012 0 0 0 0
9:42 am 09:42 Mostly Cloudy with Fog 33 0.6 32 0 96 96 SE 3 6 29.91 1013 0.25 0.402336 0 0
9:53 am 09:53 Mostly Cloudy with Fog 32 0 32 0 100 100 SSE 5 7 29.85 1011 0.25 0.402336 0 0
10:10 am 10:10 Mostly Cloudy with Freezing Fog 31 -0.6 31 -0.6 100 100 SE 3 6 29.94 1014 0.25 0.402336 0 0
10:35 am 10:35 Mostly Cloudy with Fog 32 0 32 0 100 100 SE 5 7 29.91 1013 0 0 0 0
10:53 am 10:53 Mostly Cloudy with Fog 32 0 32 0 100 100 SSE 5 7 29.85 1011 0 0 0 0
11:19 am 11:19 Mostly Cloudy with Fog 32 0 32 0 100 100 Calm 29.85 1011 0.25 0.402336 0 0
11:53 am 11:53 Mostly Cloudy with Mist and Fog 33 0.6 33 0.6 100 100 Calm 29.8 1009 0.75 1.207008 0 0
11:56 am 11:56 Mostly Cloudy with Mist and Fog 34 1 34 1 100 100 Calm 29.83 1010 2.5 4.02336 0 0
12:00 pm 12:00 Partly Cloudy with Mist and Fog 34 1 34 1 100 100 Calm 29.83 1010 6 9.656064 0 0
12:53 pm 12:53 Sunny 39 3.9 35 1.7 86 86 Calm 29.77 1008 10 16.09344 0 0
1:53 pm 13:53 Sunny 44 6.7 36 2.2 73 73 Calm 29.71 1006 10 16.09344 0 0
2:53 pm 14:53 Sunny 40 4.4 35 1.7 83 83 S 5 7 29.68 1005 10 16.09344 0 0
3:53 pm 15:53 Sunny 43 6.1 36 2.2 76 76 ESE 3 6 29.65 1004 10 16.09344 0 0
4:53 pm 16:53 Sunny 45 7.2 37 2.8 74 74 E 6 9 29.62 1003 10 16.09344 0 0
5:53 pm 17:53 Sunny 44 6.7 38 3.3 79 79 ENE 5 7 29.59 1002 10 16.09344 0 0
6:53 pm 18:53 Sunny 41 5 36 2.2 82 82 SSW 7 11 29.62 1003 10 16.09344 0 0
7:53 pm 19:53 Mostly Clear 39 3.9 35 1.7 86 86 ENE 5 7 29.62 1003 10 16.09344 0 0
8:53 pm 20:53 Mostly Cloudy 39 3.9 34 1.1 82 82 E 10 17 29.59 1002 10 16.09344 0 0
9:53 pm 21:53 Clear 38 3.3 36 2.2 93 93 ESE 10 17 29.59 1002 10 16.09344 0 0
10:53 pm 22:53 Mostly Cloudy 37 2.8 36 2.2 96 96 Calm 29.56 1001 10 16.09344 0 0
11:53 pm 23:53 Mostly Cloudy 38 3.3 35 1.7 89 89 NE 5 7 29.5 999 10 16.09344 0 0

Powered by AerisWeather